Showing default

TJS-3, 43874

Orbit data source: Space-Track

TJS-3, 43874 is a payload satellite owned by CASC (CN) in GEO that was launched on Mon, 24 Dec 2018 UTC via a CHANG ZHENG 3C launch vehicle from the Xichang Space Center, China (XSC). Payload-class satellites include a variety of spacecraft equipped with specific instruments for various scientific and technological missions. These include communications satellites like Starlink; space stations such as the ISS; scientific satellites like the Hubble; Earth observation satellites from companies like Planet Labs, Umbra, and HawkEye 360; GPS; miniature CubeSats for education and research; and military/defense satellites.

Not visible in the next 10 days
Identifier
43874, 2018-110A
Orbit
GEO
Country
Flag of CNCN / PRC
Related business
Manufacturer
CAST
Mission
Operational Defense Technology
Bus & Motor
TJS-3, Unknown motor
Mass
~2,700 kg wet, ~2,200 kg dry
Launch date (UTC)
2018-12-24 (8 years ago)
Launch vehicle
CHANG ZHENG 3C
Launch site
Xichang Space Center, China (XSC)
Object type
Payload
Rocket body
Debris
Shape & HBR
Box + 2 Pan, 10.0 m
Radar Cross Section
27.363 m², Large (>1 m²)

Expand to show TLE details & history
Last TLE update: 11 hours ago

TLE from 11 hours ago
0 TJS-3
1 43874U 18110A   26206.68294442 -.00000214  00000-0  00000+0 0  9999
2 43874   2.6405  80.0272 0002879  85.4623 171.9523  1.00270339 27808
Epoch: 2026-07-25T16:23Z
TLE epoch observation values (Epoch: 2026-07-25T16:23:26.397Z)
Latitude
-2.60188°
Longitude
148.19313°
Altitude
35,798.896 km
Speed
3.074 km/s
True Right ascension
22h 29m 46s
True Declination
-2° 35' 57"
Sunlit
Object was in daylight at epoch
Visualization orbit readout
Latitude
Unknown
Longitude
Unknown
Altitude
Unknown
Speed
Unknown
Apparent Right ascension
Unknown
Apparent Declination
Unknown
Sunlit
N/A
Visualization observer readout
Local Sidereal Time
16:22:18
Azimuth
Unknown
Elevation
Unknown
Doppler factor
Unknown
Orbital elements
Apogee altitude
35,800.207 km
Perigee altitude
35,775.928 km
Semi-major axis
42,166.204 km
Eccentricity
0.00029
Inclination
2.6405°
RAAN
80.0272°
Arg. of periapsis
85.4623°
True anomaly
171.95692°
Mean anomaly
171.9523°
Eccentric anomaly
171.95461°
Mean motion
0.25067 °/min
Orbital period
1,436.17 mins
BSTAR
0
Loading maneuver chart data...
Computing Atmospheric mass density...
Loading historical data...
Loading historical data...
Loading historical data...
Loading historical data...
Loading historical data...
Loading historical data...
Loading historical data...
Other satellites on launch #110 in the year 2018 (2018-12-24 UTC)

Documentation

Showing up to 5 results
|